Notices

What's New in latest Release from April 7th, 2021:

- Updated Glossary, including Speed of Maximum Gust, and Total Hourly Precipitation

- Updated national and regional climate services offices contacts and prices information

- Addition of station inventory lists for 1981-2010, 1971-2000, and 1961-1990 Normals.

If you haven't already, please take our survey and provide feedback about our website: https://eccc.sondage-survey.ca/f/LanguageSelection.aspx?s=442ca660-fcf1-47c0-95a9-59707d6fd709

Hourly Data Report for September 27, 2015

IQALUIT CLIMATE
NUNAVUT

63°44'50.000" N
68°32'40.000" W
33.50 m
2402592
71321
XFB

Download Data

Hourly Data (September 2015)
Hourly Data Report for September 27, 2015
TIME
LST
Temp Definition
°C
Dew Point Definition
°C
Rel Hum Definition
%
Precip. Amount Definition
mm

Wind Dir Definition
10's deg

Wind Spd Definition
km/h
Visibility Definition
km
Stn Press Definition
kPa
Hmdx Definition


Wind Chill Definition


Weather Definition


00:00 -1.7 -6.1 72 0.0 15 32   100.14   -9 LegendNANA
01:00 -1.7 -5.7 74 0.0 14 33   99.97   -9 LegendNANA
02:00 -1.7 -5.4 76 0.0 15 35   99.93   -9 LegendNANA
03:00 -2.0 -4.4 84 0.0 14 37   99.76   -10 LegendNANA
04:00 -2.3 -3.7 90 0.0 14 37   99.69   -10 LegendNANA
05:00 -1.7 -3.4 88 0.0 14 40   99.62   -10 LegendNANA
06:00 -1.5 -3.3 87 0.0 13 40   99.54   -9 LegendNANA
07:00 -1.4 -3.4 87 0.0 14 39   99.45   -9 LegendNANA
08:00 -1.2 -3.2 87 0.0 14 37   99.44   -9 LegendNANA
09:00 -0.8 -2.5 88 0.0 14 37   99.36   -8 LegendNANA
10:00 -0.5 -2.2 88 0.0 14 38   99.35   -8 LegendNANA
11:00 -0.2 -1.9 89 0.0 14 35   99.31   -7 LegendNANA
12:00 0.1 -1.7 88 0.0 14 40   99.24     LegendNANA
13:00 0.3 -1.8 85 0.0 14 38   99.17     LegendNANA
14:00 0.3 -1.5 88 0.0 14 37   99.18     LegendNANA
15:00 0.4 -1.9 85 0.0 14 34   99.15     LegendNANA
16:00 0.4 -1.7 86 0.0 14 32   99.12     LegendNANA
17:00 0.5 -1.8 85 0.0 14 28   99.11     LegendNANA
18:00 0.5 -1.7 85 0.0 15 21   99.10     LegendNANA
19:00 0.7 -2.0 82 0.0 13 15   99.10     LegendNANA
20:00 0.5 -1.8 85 0.0 19 5   99.10     LegendNANA
21:00 0.3 -1.6 87 0.0 19 3   99.07     LegendNANA
22:00 -0.1 -1.4 91 0.0 31 6   99.05   -2 LegendNANA
23:00 -0.3 -1.1 94 0.0 33 10   99.03   -4 LegendNANA

Notes on Data Quality.

Legend

  • E = Estimated
  • M = Missing
  • NA = Not Available*
  • [empty] = Indicates an unobserved value
Date modified: